This is the latest recevied weather packets stored in our database for station/object VA2DG-13. If no packets are shown the sender has not sent any weather packets the latest 10 day(s).
| Time | Temp. | Humidity | Pressure | Rain* | Wind** | Luminosity | Snow |
|---|---|---|---|---|---|---|---|
| 1777247406 | 17.22° C | 34% | 1019.5 hPa | 0 mm | - | - | - |
| 1777246506 | 17.22° C | 34% | 1019.3 hPa | 0 mm | - | - | - |
| 1777246206 | 17.22° C | 34% | 1019.3 hPa | 0 mm | - | - | - |
| 1777244705 | 17.78° C | 33% | 1019.3 hPa | 0 mm | - | - | - |
| 1777244405 | 17.78° C | 33% | 1019.2 hPa | 0 mm | - | - | - |
| 1777242305 | 17.78° C | 33% | 1019.1 hPa | 0 mm | - | - | - |
| 1777238706 | 18.33° C | 31% | 1018.8 hPa | 0 mm | - | - | - |
| 1777238406 | 18.33° C | 31% | 1018.8 hPa | 0 mm | - | - | - |
| 1777235405 | 18.33° C | 31% | 1018.7 hPa | 0 mm | - | - | - |
| 1777232106 | 17.78° C | 29% | 1018.8 hPa | 0 mm | - | - | - |
| 1777230606 | 17.78° C | 30% | 1019 hPa | 0 mm | - | - | - |
| 1777226405 | 17.22° C | 32% | 1019.3 hPa | 0 mm | - | - | - |
| 1777225806 | 17.78° C | 32% | 1019.4 hPa | 0 mm | - | - | - |
| 1777225505 | 17.78° C | 33% | 1019.5 hPa | 0 mm | - | - | - |
| 1777225205 | 17.78° C | 33% | 1019.5 hPa | 0 mm | - | - | - |
| 1777222805 | 17.22° C | 32% | 1019.8 hPa | 0 mm | - | - | - |
| 1777221005 | 16.11° C | 33% | 1019.8 hPa | 0 mm | - | - | - |
| 1777218905 | 16.11° C | 35% | 1019.8 hPa | 0 mm | - | - | - |
| 1777217406 | 15° C | 37% | 1019.9 hPa | 0 mm | - | - | - |
| 1777216806 | 15° C | 36% | 1020.1 hPa | 0 mm | - | - | - |
| 1777216206 | 15° C | 35% | 1020.1 hPa | 0 mm | - | - | - |
| 1777215306 | 15° C | 39% | 1020 hPa | 0 mm | - | - | - |
| 1777214105 | 13.89° C | 42% | 1020 hPa | 0 mm | - | - | - |
| 1777213505 | 13.89° C | 41% | 1020 hPa | 0 mm | - | - | - |
| 1777212005 | 13.33° C | 45% | 1020 hPa | 0 mm | - | - | - |
* Rain latest hour (hover to see other rain measurements)
** Current wind speed in m/s (hover to see current wind gust speed)